Voltar ao catálogo

DELTA 1 DEB

AtivoSSO
NORAD 42560·DEBRIS·🇺🇸 United States

Lançado Jul 23, 1972 de Vandenberg Space Force Base

Loading…

Próximas Passagens (próximas 24 horas)

TLE

AtualizadoSource: Space-Track

Época: Sep 14, 2026, 03:02 UTC

1 42560U 72058JT  26257.12692521  .00000256  00000-0  75014-4 0  9993
2 42560  97.8933 214.6619 0093820 273.4224 148.0278 14.49115542676604

Acompanhe DELTA 1 DEB em tempo real com AllMySat

Download on the App Store